Time,TemperatureF,DewpointF,PressureIn,WindDirection,WindDirectionDegrees,WindSpeedMPH,WindSpeedGustMPH,Humidity,HourlyPrecipIn,Conditions,Clouds,dailyrainin,SoftwareType,DateUTC
2013-05-02 00:03:00,53.6,48.0,30.09,SE,145,0.0,-999.0,82,-99.99,,,0.00,weatherlink.com 1.10,2013-05-02 07:03:00,
2013-05-02 00:18:00,53.3,48.0,30.09,SE,145,0.0,-999.0,82,-99.99,,,0.00,weatherlink.com 1.10,2013-05-02 07:18:00,
2013-05-02 00:33:00,53.1,48.0,30.09,SE,145,0.0,-999.0,82,-99.99,,,0.00,weatherlink.com 1.10,2013-05-02 07:33:00,
2013-05-02 00:48:00,52.9,48.0,30.09,SE,145,0.0,-999.0,82,-99.99,,,0.00,weatherlink.com 1.10,2013-05-02 07:48:00,
2013-05-02 01:03:00,52.8,47.0,30.10,SE,145,0.0,-999.0,81,-99.99,,,0.00,weatherlink.com 1.10,2013-05-02 08:03:00,
2013-05-02 01:18:00,52.6,47.0,30.10,SE,145,0.0,-999.0,81,-99.99,,,0.00,weatherlink.com 1.10,2013-05-02 08:18:00,
2013-05-02 01:33:00,52.3,46.0,30.09,SE,145,0.0,-999.0,79,-99.99,,,0.00,weatherlink.com 1.10,2013-05-02 08:33:00,
2013-05-02 01:48:00,51.9,45.0,30.10,SE,145,0.0,-999.0,76,-99.99,,,0.00,weatherlink.com 1.10,2013-05-02 08:48:00,
2013-05-02 02:03:00,51.7,43.0,30.09,SE,145,0.0,-999.0,72,-99.99,,,0.00,weatherlink.com 1.10,2013-05-02 09:03:00,
2013-05-02 02:18:00,51.6,42.0,30.09,SE,145,0.0,-999.0,70,-99.99,,,0.00,weatherlink.com 1.10,2013-05-02 09:18:00,
2013-05-02 02:33:00,51.6,42.0,30.10,SE,145,0.0,-999.0,71,-99.99,,,0.00,weatherlink.com 1.10,2013-05-02 09:33:00,
2013-05-02 02:48:00,51.6,43.0,30.10,SE,145,0.0,-999.0,73,-99.99,,,0.00,weatherlink.com 1.10,2013-05-02 09:48:00,
2013-05-02 03:03:00,51.7,43.0,30.10,SE,145,0.0,-999.0,72,-99.99,,,0.00,weatherlink.com 1.10,2013-05-02 10:03:00,
2013-05-02 03:18:00,51.4,42.0,30.10,SE,145,0.0,-999.0,71,-99.99,,,0.00,weatherlink.com 1.10,2013-05-02 10:18:00,
2013-05-02 03:33:00,51.3,41.0,30.10,SE,145,0.0,-999.0,69,-99.99,,,0.00,weatherlink.com 1.10,2013-05-02 10:33:00,
2013-05-02 03:48:00,51.3,41.0,30.10,SE,145,0.0,-999.0,69,-99.99,,,0.00,weatherlink.com 1.10,2013-05-02 10:48:00,
2013-05-02 04:03:00,51.4,42.0,30.11,SE,145,0.0,-999.0,69,-99.99,,,0.00,weatherlink.com 1.10,2013-05-02 11:03:00,
2013-05-02 04:18:00,51.7,42.0,30.11,SE,145,0.0,-999.0,70,-99.99,,,0.00,weatherlink.com 1.10,2013-05-02 11:18:00,
2013-05-02 04:33:00,51.7,43.0,30.11,SE,145,0.0,-999.0,72,-99.99,,,0.00,weatherlink.com 1.10,2013-05-02 11:33:00,
2013-05-02 04:48:00,51.7,43.0,30.11,SE,145,0.0,-999.0,72,-99.99,,,0.00,weatherlink.com 1.10,2013-05-02 11:48:00,
2013-05-02 05:03:00,51.7,43.0,30.11,SE,145,0.0,-999.0,73,-99.99,,,0.00,weatherlink.com 1.10,2013-05-02 12:03:00,
2013-05-02 05:18:00,51.7,44.0,30.11,SE,145,0.0,-999.0,74,-99.99,,,0.00,weatherlink.com 1.10,2013-05-02 12:18:00,
2013-05-02 05:33:00,51.7,43.0,30.11,SE,145,0.0,-999.0,73,-99.99,,,0.00,weatherlink.com 1.10,2013-05-02 12:33:00,
2013-05-02 05:48:00,51.9,43.0,30.11,SE,145,0.0,-999.0,73,-99.99,,,0.00,weatherlink.com 1.10,2013-05-02 12:48:00,
2013-05-02 06:03:00,51.9,43.0,30.12,SE,145,0.0,-999.0,73,-99.99,,,0.00,weatherlink.com 1.10,2013-05-02 13:03:00,
2013-05-02 06:18:00,51.7,43.0,30.12,SE,145,0.0,-999.0,72,-99.99,,,0.00,weatherlink.com 1.10,2013-05-02 13:18:00,
2013-05-02 06:33:00,51.9,43.0,30.12,SE,145,0.0,-999.0,72,-99.99,,,0.00,weatherlink.com 1.10,2013-05-02 13:33:00,
2013-05-02 06:48:00,52.2,43.0,30.12,SE,145,0.0,-999.0,71,-99.99,,,0.00,weatherlink.com 1.10,2013-05-02 13:48:00,
2013-05-02 07:03:00,52.6,44.0,30.12,SE,145,0.0,-999.0,72,-99.99,,,0.00,weatherlink.com 1.10,2013-05-02 14:03:00,
2013-05-02 07:18:00,53.2,45.0,30.12,SE,145,0.0,-999.0,73,-99.99,,,0.00,weatherlink.com 1.10,2013-05-02 14:18:00,
2013-05-02 07:34:00,54.5,46.0,30.13,SE,145,0.0,-999.0,73,-99.99,,,0.00,weatherlink.com 1.10,2013-05-02 14:34:00,
2013-05-02 07:49:00,56.5,48.0,30.13,SE,142,0.0,-999.0,73,-99.99,,,0.00,weatherlink.com 1.10,2013-05-02 14:49:00,
2013-05-02 08:04:00,59.2,50.0,30.13,SE,142,0.0,-999.0,71,-99.99,,,0.00,weatherlink.com 1.10,2013-05-02 15:04:00,
2013-05-02 08:19:00,62.6,49.0,30.13,SE,142,0.0,-999.0,62,-99.99,,,0.00,weatherlink.com 1.10,2013-05-02 15:19:00,
2013-05-02 08:34:00,64.7,50.0,30.14,SSE,154,0.0,-999.0,59,-99.99,,,0.00,weatherlink.com 1.10,2013-05-02 15:34:00,
2013-05-02 08:49:00,66.6,51.0,30.14,SSE,155,0.0,-999.0,57,-99.99,,,0.00,weatherlink.com 1.10,2013-05-02 15:49:00,
2013-05-02 09:05:00,68.3,50.0,30.14,SSE,155,0.0,-999.0,52,-99.99,,,0.00,weatherlink.com 1.10,2013-05-02 16:05:00,
2013-05-02 09:18:00,70.1,50.0,30.15,SSE,156,0.0,-999.0,49,-99.99,,,0.00,weatherlink.com 1.10,2013-05-02 16:18:00,
2013-05-02 09:35:00,71.8,49.0,30.14,SSE,157,0.0,-999.0,44,-99.99,,,0.00,weatherlink.com 1.10,2013-05-02 16:35:00,
2013-05-02 09:49:00,73.2,48.0,30.14,SSW,207,0.0,-999.0,41,-99.99,,,0.00,weatherlink.com 1.10,2013-05-02 16:49:00,
2013-05-02 10:04:00,74.6,49.0,30.14,SSW,207,0.0,-999.0,40,-99.99,,,0.00,weatherlink.com 1.10,2013-05-02 17:04:00,
2013-05-02 10:19:00,75.6,44.0,30.14,SSW,212,0.0,-999.0,32,-99.99,,,0.00,weatherlink.com 1.10,2013-05-02 17:19:00,
2013-05-02 10:34:00,77.4,43.0,30.14,SSW,212,0.0,-999.0,29,-99.99,,,0.00,weatherlink.com 1.10,2013-05-02 17:34:00,
2013-05-02 11:04:00,80.5,37.0,30.14,West,277,0.0,-999.0,21,-99.99,,,0.00,weatherlink.com 1.10,2013-05-02 18:04:00,
2013-05-02 11:19:00,81.2,36.0,30.14,WSW,245,0.0,-999.0,20,-99.99,,,0.00,weatherlink.com 1.10,2013-05-02 18:19:00,
2013-05-02 11:34:00,82.8,38.0,30.14,SW,232,0.0,-999.0,20,-99.99,,,0.00,weatherlink.com 1.10,2013-05-02 18:34:00,
2013-05-02 11:49:00,83.0,37.0,30.14,SSW,195,2.0,-999.0,19,-99.99,,,0.00,weatherlink.com 1.10,2013-05-02 18:49:00,
2013-05-02 12:04:00,85.7,25.0,30.14,NNE,25,1.0,-999.0,11,-99.99,,,0.00,weatherlink.com 1.10,2013-05-02 19:04:00,
2013-05-02 12:19:00,87.0,26.0,30.13,ESE,119,0.0,-999.0,11,-99.99,,,0.00,weatherlink.com 1.10,2013-05-02 19:19:00,
2013-05-02 12:34:00,87.6,27.0,30.13,East,86,1.0,-999.0,11,-99.99,,,0.00,weatherlink.com 1.10,2013-05-02 19:34:00,
2013-05-02 12:49:00,88.6,28.0,30.13,ENE,76,2.0,-999.0,11,-99.99,,,0.00,weatherlink.com 1.10,2013-05-02 19:49:00,
2013-05-02 13:04:00,89.0,23.0,30.12,ESE,122,0.0,-999.0,9,-99.99,,,0.00,weatherlink.com 1.10,2013-05-02 20:04:00,
2013-05-02 13:19:00,90.1,27.0,30.12,ENE,69,0.0,-999.0,10,-99.99,,,0.00,weatherlink.com 1.10,2013-05-02 20:19:00,
2013-05-02 13:35:00,90.7,24.0,30.12,NE,56,1.0,-999.0,9,-99.99,,,0.00,weatherlink.com 1.10,2013-05-02 20:35:00,
2013-05-02 13:50:00,91.2,30.0,30.12,ENE,78,0.0,-999.0,11,-99.99,,,0.00,weatherlink.com 1.10,2013-05-02 20:50:00,
2013-05-02 14:05:00,91.0,27.0,30.12,East,88,0.0,-999.0,10,-99.99,,,0.00,weatherlink.com 1.10,2013-05-02 21:05:00,
2013-05-02 14:19:00,91.4,36.0,30.12,WSW,242,1.0,-999.0,14,-99.99,,,0.00,weatherlink.com 1.10,2013-05-02 21:19:00,
2013-05-02 14:34:00,91.4,34.0,30.12,WSW,250,0.0,-999.0,13,-99.99,,,0.00,weatherlink.com 1.10,2013-05-02 21:34:00,
2013-05-02 14:49:00,91.0,30.0,30.12,SSW,208,0.0,-999.0,11,-99.99,,,0.00,weatherlink.com 1.10,2013-05-02 21:49:00,
2013-05-02 15:05:00,91.2,27.0,30.11,South,182,0.0,-999.0,10,-99.99,,,0.00,weatherlink.com 1.10,2013-05-02 22:05:00,
2013-05-02 15:20:00,91.8,36.0,30.11,South,186,0.0,-999.0,14,-99.99,,,0.00,weatherlink.com 1.10,2013-05-02 22:20:00,
2013-05-02 15:35:00,87.8,41.0,30.11,West,277,1.0,-999.0,19,-99.99,,,0.00,weatherlink.com 1.10,2013-05-02 22:35:00,
2013-05-02 15:50:00,85.7,40.0,30.11,SW,236,2.0,-999.0,20,-99.99,,,0.00,weatherlink.com 1.10,2013-05-02 22:50:00,
2013-05-02 16:05:00,84.1,40.0,30.11,South,188,0.0,-999.0,21,-99.99,,,0.00,weatherlink.com 1.10,2013-05-02 23:05:00,
2013-05-02 16:20:00,83.4,42.0,30.11,SSW,213,0.0,-999.0,23,-99.99,,,0.00,weatherlink.com 1.10,2013-05-02 23:20:00,
2013-05-02 16:36:00,82.6,41.0,30.11,WSW,242,0.0,-999.0,23,-99.99,,,0.00,weatherlink.com 1.10,2013-05-02 23:36:00,
2013-05-02 16:51:00,83.0,42.0,30.11,WSW,249,0.0,-999.0,23,-99.99,,,0.00,weatherlink.com 1.10,2013-05-02 23:51:00,
2013-05-02 17:06:00,82.6,39.0,30.11,WSW,250,0.0,-999.0,21,-99.99,,,0.00,weatherlink.com 1.10,2013-05-03 00:06:00,
2013-05-02 17:21:00,81.4,37.0,30.11,SSW,205,0.0,-999.0,20,-99.99,,,0.00,weatherlink.com 1.10,2013-05-03 00:21:00,
2013-05-02 17:36:00,81.2,36.0,30.11,SW,227,0.0,-999.0,20,-99.99,,,0.00,weatherlink.com 1.10,2013-05-03 00:36:00,
2013-05-02 17:51:00,81.1,39.0,30.11,SW,218,0.0,-999.0,22,-99.99,,,0.00,weatherlink.com 1.10,2013-05-03 00:51:00,
2013-05-02 18:06:00,79.6,39.0,30.10,SW,227,0.0,-999.0,23,-99.99,,,0.00,weatherlink.com 1.10,2013-05-03 01:06:00,
2013-05-02 18:21:00,78.1,38.0,30.10,SSW,213,0.0,-999.0,24,-99.99,,,0.00,weatherlink.com 1.10,2013-05-03 01:21:00,
2013-05-02 18:36:00,75.6,40.0,30.10,SW,225,0.0,-999.0,28,-99.99,,,0.00,weatherlink.com 1.10,2013-05-03 01:36:00,
2013-05-02 18:51:00,74.4,39.0,30.10,SW,219,0.0,-999.0,28,-99.99,,,0.00,weatherlink.com 1.10,2013-05-03 01:51:00,
2013-05-02 19:06:00,72.8,40.0,30.10,SE,144,0.0,-999.0,30,-99.99,,,0.00,weatherlink.com 1.10,2013-05-03 02:06:00,
2013-05-02 19:21:00,71.5,41.0,30.10,SE,144,0.0,-999.0,33,-99.99,,,0.00,weatherlink.com 1.10,2013-05-03 02:21:00,
2013-05-02 19:36:00,70.8,41.0,30.10,SSE,153,0.0,-999.0,34,-99.99,,,0.00,weatherlink.com 1.10,2013-05-03 02:36:00,
2013-05-02 19:51:00,69.9,42.0,30.10,SSE,153,0.0,-999.0,36,-99.99,,,0.00,weatherlink.com 1.10,2013-05-03 02:51:00,
2013-05-02 20:06:00,68.9,43.0,30.10,SSE,153,0.0,-999.0,40,-99.99,,,0.00,weatherlink.com 1.10,2013-05-03 03:06:00,
2013-05-02 20:21:00,67.4,43.0,30.10,SSE,152,0.0,-999.0,42,-99.99,,,0.00,weatherlink.com 1.10,2013-05-03 03:21:00,
2013-05-02 20:36:00,66.3,44.0,30.10,SSE,152,0.0,-999.0,45,-99.99,,,0.00,weatherlink.com 1.10,2013-05-03 03:36:00,
2013-05-02 20:51:00,65.3,44.0,30.10,SSE,151,0.0,-999.0,47,-99.99,,,0.00,weatherlink.com 1.10,2013-05-03 03:51:00,
2013-05-02 21:06:00,64.3,43.0,30.10,SSE,152,0.0,-999.0,46,-99.99,,,0.00,weatherlink.com 1.10,2013-05-03 04:06:00,
2013-05-02 21:21:00,63.5,41.0,30.10,SSE,152,0.0,-999.0,44,-99.99,,,0.00,weatherlink.com 1.10,2013-05-03 04:21:00,
2013-05-02 21:36:00,62.9,40.0,30.10,SSE,151,0.0,-999.0,44,-99.99,,,0.00,weatherlink.com 1.10,2013-05-03 04:36:00,
2013-05-02 21:51:00,62.3,43.0,30.10,SSE,151,0.0,-999.0,49,-99.99,,,0.00,weatherlink.com 1.10,2013-05-03 04:51:00,
2013-05-02 22:06:00,61.5,43.0,30.10,SSE,151,0.0,-999.0,50,-99.99,,,0.00,weatherlink.com 1.10,2013-05-03 05:06:00,
2013-05-02 22:20:00,61.0,42.0,30.10,SSE,152,0.0,-999.0,50,-99.99,,,0.00,weatherlink.com 1.10,2013-05-03 05:20:00,
2013-05-02 22:36:00,60.5,38.0,30.10,SSE,151,0.0,-999.0,44,-99.99,,,0.00,weatherlink.com 1.10,2013-05-03 05:36:00,
2013-05-02 22:51:00,60.1,39.0,30.10,SSE,152,0.0,-999.0,45,-99.99,,,0.00,weatherlink.com 1.10,2013-05-03 05:51:00,
2013-05-02 23:06:00,59.8,38.0,30.10,SSE,152,0.0,-999.0,45,-99.99,,,0.00,weatherlink.com 1.10,2013-05-03 06:06:00,
2013-05-02 23:21:00,59.6,37.0,30.10,SSE,152,0.0,-999.0,43,-99.99,,,0.00,weatherlink.com 1.10,2013-05-03 06:21:00,
2013-05-02 23:36:00,59.5,36.0,30.09,SSE,152,0.0,-999.0,42,-99.99,,,0.00,weatherlink.com 1.10,2013-05-03 06:36:00,
2013-05-02 23:51:00,59.3,36.0,30.09,SSE,152,0.0,-999.0,42,-99.99,,,0.00,weatherlink.com 1.10,2013-05-03 06:51:00,